Tracking 34352 objects as of 8-Jun-2026
HD Live streaming from Space Station
objects crossing your sky now

OPS 2222

Track OPS 2222 now!
OPS 2222 is classified as:


NORAD ID: 3334
Int'l Code: 1968-063A
Perigee: 32,269.8 km
Apogee: 39,894.7 km
Inclination: 5.9 °
Period: 1,450.9 minutes
Semi major axis: 42453 km
RCS: Unknown
Launch date: August 6, 1968
Source: United States (US)
Launch site: AIR FORCE EASTERN TEST RANGE (AFETR)
Your satellite tracking list
Your tracking list is empty




NASA's NSSDC Master Catalog

Two Line Element Set (TLE):
1  3334U 68063A   26159.39870441 -.00000126  00000-0  00000+0 0  9994
2  3334   5.9403 282.1455 0898033 231.7620 162.0552  0.99251286 26040
Source of the keplerian elements: McCants